| time (UTC) | temp C | wind direction | speed KPH | gust KPH | rain 1hr cm | rain 24hr cm | rain mn cm | humidity % | barometer mb |
| 20260509090105 | 3 | 281 | 0.0 | 0.0 | 0.00 | 0.15 | 0.00 | 91 | 1008.3 |
| 20260509084601 | 3 | 282 | 0.0 | 0.0 | 0.00 | 0.15 | 0.00 | 91 | 1008.3 |
| 20260509083101 | 3 | 282 | 0.0 | 0.0 | 0.00 | 0.15 | 0.00 | 91 | 1008.4 |
| 20260509081552 | 3 | 282 | 0.0 | 0.0 | 0.00 | 0.15 | 0.00 | 91 | 1008.6 |
| 20260509080054 | 3 | 282 | 0.0 | 0.0 | 0.00 | 0.15 | 0.00 | 90 | 1008.7 |
| 20260509074553 | 3 | 282 | 0.0 | 0.0 | 0.00 | 0.15 | 0.00 | 90 | 1008.7 |
| 20260509073051 | 3 | 281 | 0.0 | 0.0 | 0.00 | 0.15 | 0.00 | 90 | 1008.9 |
| 20260509071547 | 3 | 282 | 0.0 | 0.0 | 0.00 | 0.15 | 0.00 | 90 | 1009.0 |
| 20260509070044 | 3 | 282 | 0.0 | 0.0 | 0.00 | 0.15 | 0.00 | 91 | 1009.1 |
| 20260509064542 | 3 | 309 | 0.0 | 0.0 | 0.00 | 0.15 | 0.00 | 90 | 1009.2 |
| 20260509063039 | 3 | 309 | 0.0 | 0.0 | 0.00 | 0.15 | 0.00 | 90 | 1009.5 |
| 20260509061537 | 3 | 331 | 0.0 | 0.0 | 0.00 | 0.15 | 0.00 | 90 | 1009.6 |
| 20260509060040 | 3 | 331 | 0.0 | 0.0 | 0.00 | 0.15 | 0.00 | 89 | 1009.8 |
| 20260509054533 | 3 | 331 | 0.0 | 0.0 | 0.00 | 0.15 | 0.00 | 89 | 1009.8 |
| 20260509053041 | 3 | 331 | 0.0 | 0.0 | 0.00 | 0.15 | 0.00 | 90 | 1010.0 |
| 20260509051528 | 3 | 331 | 0.0 | 0.0 | 0.00 | 0.15 | 0.00 | 90 | 1010.1 |
| 20260509050026 | 3 | 331 | 0.0 | 0.0 | 0.00 | 0.15 | 0.00 | 90 | 1010.2 |
| 20260509044525 | 3 | 331 | 0.0 | 0.0 | 0.00 | 0.18 | 0.00 | 89 | 1010.3 |
| 20260509043023 | 4 | 339 | 0.0 | 0.0 | 0.00 | 0.18 | 0.00 | 89 | 1010.5 |
| 20260509041521 | 4 | 339 | 0.0 | 0.0 | 0.00 | 0.18 | 0.00 | 88 | 1010.6 |
| 20260509040027 | 5 | 339 | 0.0 | 0.0 | 0.00 | 0.18 | 0.00 | 86 | 1010.7 |
| 20260509034518 | 5 | 339 | 0.0 | 0.0 | 0.00 | 0.18 | 0.18 | 86 | 1010.7 |
| 20260509033017 | 5 | 339 | 0.0 | 0.0 | 0.00 | 0.18 | 0.18 | 85 | 1010.7 |
| 20260509031517 | 5 | 339 | 0.0 | 0.0 | 0.00 | 0.18 | 0.18 | 85 | 1010.8 |
| 20260509030031 | 5 | 339 | 0.0 | 0.0 | 0.00 | 0.18 | 0.18 | 83 | 1010.8 |
| 20260509024516 | 5 | 339 | 0.0 | 0.0 | 0.00 | 0.18 | 0.18 | 83 | 1010.9 |
| 20260509023015 | 6 | 340 | 0.0 | 0.0 | 0.00 | 0.18 | 0.18 | 80 | 1010.9 |
| 20260509021514 | 6 | 340 | 0.0 | 0.0 | 0.00 | 0.18 | 0.18 | 80 | 1010.8 |
| 20260509020013 | 6 | 340 | 0.0 | 0.0 | 0.00 | 0.18 | 0.18 | 78 | 1010.8 |
| 20260509014513 | 6 | 340 | 0.0 | 0.0 | 0.00 | 0.18 | 0.18 | 75 | 1010.8 |
| 20260509013012 | 7 | 340 | 0.0 | 0.0 | 0.00 | 0.18 | 0.18 | 74 | 1010.8 |
| 20260509011611 | 7 | 340 | 0.0 | 0.0 | 0.00 | 0.18 | 0.18 | 73 | 1010.7 |
| 20260509010010 | 8 | 340 | 0.0 | 0.0 | 0.00 | 0.18 | 0.18 | 71 | 1010.5 |
| 20260509004513 | 8 | 340 | 0.0 | 0.0 | 0.00 | 0.18 | 0.18 | 68 | 1010.2 |
| 20260509003012 | 9 | 340 | 0.0 | 0.0 | 0.00 | 0.18 | 0.18 | 64 | 1010.0 |
| 20260509001512 | 10 | 340 | 0.0 | 0.0 | 0.00 | 0.18 | 0.18 | 62 | 1010.0 |
| 20260509000008 | 10 | 340 | 0.0 | 0.0 | 0.00 | 0.18 | 0.18 | 61 | 1009.9 |
| 20260508234512 | 11 | 340 | 0.0 | 0.0 | 0.00 | 0.18 | 0.18 | 58 | 1009.9 |
| 20260508233008 | 11 | 340 | 0.0 | 0.0 | 0.00 | 0.18 | 0.18 | 54 | 1009.7 |
| 20260508231507 | 11 | 340 | 0.0 | 0.0 | 0.00 | 0.18 | 0.18 | 53 | 1009.7 |
| 20260508230005 | 12 | 6 | 0.0 | 0.0 | 0.00 | 0.18 | 0.18 | 50 | 1009.8 |
| 20260508224505 | 12 | 8 | 0.0 | 0.0 | 0.00 | 0.18 | 0.18 | 48 | 1009.8 |
| 20260508223005 | 12 | 295 | 0.0 | 0.0 | 0.00 | 0.18 | 0.18 | 47 | 1009.8 |
| 20260508221504 | 12 | 30 | 0.0 | 0.0 | 0.00 | 0.18 | 0.18 | 48 | 1009.8 |
| 20260508220003 | 12 | 64 | 0.0 | 0.0 | 0.00 | 0.18 | 0.18 | 45 | 1009.8 |
| 20260508214503 | 12 | 6 | 0.0 | 0.0 | 0.00 | 0.18 | 0.18 | 44 | 1009.9 |
| 20260508213006 | 12 | 320 | 0.0 | 0.0 | 0.00 | 0.18 | 0.18 | 45 | 1010.0 |
| 20260508211500 | 13 | 341 | 0.0 | 0.0 | 0.00 | 0.18 | 0.18 | 46 | 1010.1 |
| 20260508210000 | 12 | 65 | 0.0 | 0.0 | 0.00 | 0.18 | 0.18 | 47 | 1010.1 |
| 20260508204558 | 12 | 56 | 0.0 | 0.0 | 0.00 | 0.18 | 0.18 | 49 | 1010.2 |
| 20260508203107 | 12 | 23 | 0.0 | 0.0 | 0.00 | 0.18 | 0.18 | 50 | 1010.5 |
| 20260508201602 | 12 | 47 | 0.0 | 0.0 | 0.00 | 0.18 | 0.18 | 52 | 1010.6 |
| 20260508200053 | 12 | 27 | 0.0 | 1.6 | 0.00 | 0.18 | 0.18 | 42 | 1010.6 |
| 20260508194553 | 13 | 165 | 0.0 | 1.6 | 0.00 | 0.18 | 0.18 | 43 | 1010.6 |
| 20260508193052 | 12 | 39 | 0.0 | 1.6 | 0.00 | 0.18 | 0.18 | 43 | 1010.9 |
| 20260508191551 | 13 | 206 | 0.0 | 0.0 | 0.00 | 0.18 | 0.18 | 40 | 1011.1 |
| 20260508190049 | 13 | 52 | 0.0 | 0.0 | 0.00 | 0.18 | 0.18 | 42 | 1011.1 |
| 20260508184549 | 13 | 230 | 0.0 | 0.0 | 0.00 | 0.18 | 0.18 | 44 | 1011.2 |
| 20260508183047 | 13 | 139 | 0.0 | 1.6 | 0.00 | 0.18 | 0.18 | 42 | 1011.3 |
| 20260508181544 | 12 | 260 | 0.0 | 1.6 | 0.00 | 0.18 | 0.18 | 51 | 1011.3 |
| 20260508180042 | 12 | 160 | 0.0 | 0.0 | 0.00 | 0.18 | 0.18 | 54 | 1011.4 |
| 20260508174546 | 13 | 158 | 0.0 | 0.0 | 0.00 | 0.18 | 0.18 | 51 | 1011.7 |
| 20260508173038 | 12 | 168 | 0.0 | 1.6 | 0.00 | 0.18 | 0.18 | 54 | 1011.7 |
| 20260508171534 | 12 | 214 | 0.0 | 1.6 | 0.00 | 0.18 | 0.18 | 54 | 1011.9 |
| 20260508170030 | 11 | 210 | 0.0 | 0.0 | 0.00 | 0.18 | 0.18 | 58 | 1012.0 |
| 20260508164527 | 10 | 63 | 0.0 | 4.8 | 0.00 | 0.18 | 0.18 | 61 | 1012.2 |
| 20260508163031 | 10 | 233 | 0.0 | 0.0 | 0.00 | 0.18 | 0.18 | 61 | 1012.4 |
| 20260508161523 | 10 | 167 | 0.0 | 1.6 | 0.00 | 0.18 | 0.18 | 63 | 1012.6 |
| 20260508160024 | 9 | 127 | 0.0 | 0.0 | 0.00 | 0.18 | 0.18 | 69 | 1012.6 |
| 20260508154519 | 8 | 204 | 0.0 | 0.0 | 0.00 | 0.18 | 0.18 | 71 | 1012.6 |
| 20260508153016 | 8 | 24 | 0.0 | 0.0 | 0.00 | 0.18 | 0.18 | 73 | 1012.6 |
| 20260508151513 | 7 | 266 | 0.0 | 1.6 | 0.00 | 0.18 | 0.18 | 78 | 1012.6 |
| 20260508150027 | 7 | 81 | 0.0 | 0.0 | 0.00 | 0.18 | 0.18 | 79 | 1012.5 |
| 20260508144506 | 6 | 48 | 0.0 | 1.6 | 0.00 | 0.18 | 0.18 | 83 | 1012.5 |
| 20260508143009 | 6 | 168 | 0.0 | 0.0 | 0.00 | 0.18 | 0.18 | 88 | 1012.5 |
| 20260508141501 | 6 | 160 | 0.0 | 0.0 | 0.00 | 0.18 | 0.18 | 89 | 1012.4 |
| 20260508140118 | 5 | 219 | 0.0 | 0.0 | 0.00 | 0.18 | 0.18 | 90 | 1012.6 |
| 20260508134600 | 5 | 124 | 0.0 | 0.0 | 0.05 | 0.18 | 0.18 | 91 | 1012.8 |
| 20260508133108 | 5 | 323 | 0.0 | 0.0 | 0.08 | 0.18 | 0.18 | 93 | 1012.8 |
| 20260508131602 | 5 | 184 | 0.0 | 0.0 | 0.13 | 0.18 | 0.18 | 94 | 1012.7 |
| 20260508124556 | 5 | 34 | 0.0 | 0.0 | 0.10 | 0.13 | 0.13 | 95 | 1012.8 |
| 20260508123055 | 5 | 191 | 0.0 | 0.0 | 0.08 | 0.10 | 0.10 | 95 | 1012.5 |
| 20260508121553 | 5 | 77 | 0.0 | 0.0 | 0.03 | 0.05 | 0.05 | 97 | 1012.3 |
| 20260508120050 | 5 | 167 | 0.0 | 0.0 | 0.00 | 0.03 | 0.03 | 96 | 1012.0 |
| 20260508114547 | 4 | 167 | 0.0 | 0.0 | 0.00 | 0.03 | 0.03 | 96 | 1011.8 |
| 20260508113046 | 4 | 167 | 0.0 | 0.0 | 0.00 | 0.03 | 0.03 | 96 | 1011.6 |
| 20260508111553 | 4 | 167 | 0.0 | 0.0 | 0.00 | 0.03 | 0.03 | 96 | 1011.3 |
| 20260508110045 | 3 | 167 | 0.0 | 0.0 | 0.00 | 0.03 | 0.03 | 96 | 1011.1 |
| 20260508104544 | 3 | 167 | 0.0 | 0.0 | 0.00 | 0.03 | 0.03 | 96 | 1011.1 |
| 20260508103049 | 3 | 167 | 0.0 | 0.0 | 0.00 | 0.03 | 0.03 | 96 | 1011.0 |
| 20260508101547 | 3 | 167 | 0.0 | 0.0 | 0.00 | 0.03 | 0.03 | 96 | 1011.1 |
| 20260508100042 | 3 | 167 | 0.0 | 0.0 | 0.00 | 0.03 | 0.03 | 96 | 1011.3 |
| 20260508094543 | 3 | 166 | 0.0 | 0.0 | 0.00 | 0.03 | 0.03 | 96 | 1011.4 |
| 20260508093041 | 3 | 211 | 0.0 | 0.0 | 0.00 | 0.03 | 0.03 | 96 | 1011.5 |
| 20260508091548 | 3 | 169 | 0.0 | 0.0 | 0.00 | 0.03 | 0.03 | 96 | 1011.6 |